| time (UTC) | temp F | wind direction | speed MPH | gust MPH | rain 1hr in | rain 24hr in | rain mn in | humidity % | barometer mb |
| 20260905203052 | 55 | 332 | 4.0 | 9.0 | 0.00 | 0.34 | 0.32 | 90 | 1016.4 |
| 20260905201557 | 55 | 261 | 5.0 | 13.0 | 0.00 | 0.34 | 0.32 | 90 | 1016.3 |
| 20260905200106 | 55 | 251 | 4.0 | 11.0 | 0.00 | 0.34 | 0.32 | 90 | 1016.3 |
| 20260905194548 | 55 | 235 | 4.0 | 11.0 | 0.00 | 0.35 | 0.32 | 90 | 1016.2 |
| 20260905193053 | 55 | 290 | 5.0 | 9.0 | 0.00 | 0.35 | 0.32 | 91 | 1016.0 |
| 20260905191550 | 55 | 255 | 5.0 | 11.0 | 0.00 | 0.35 | 0.32 | 90 | 1015.8 |
| 20260905190048 | 55 | 261 | 5.0 | 12.0 | 0.00 | 0.35 | 0.32 | 90 | 1015.6 |
| 20260905184548 | 55 | 323 | 4.0 | 9.0 | 0.00 | 0.35 | 0.32 | 90 | 1015.4 |
| 20260905183051 | 55 | 321 | 4.0 | 10.0 | 0.00 | 0.35 | 0.32 | 91 | 1015.4 |
| 20260905181549 | 55 | 323 | 4.0 | 9.0 | 0.00 | 0.35 | 0.32 | 91 | 1015.3 |
| 20260905180045 | 55 | 278 | 5.0 | 10.0 | 0.00 | 0.35 | 0.32 | 90 | 1015.2 |
| 20260905174559 | 56 | 289 | 3.0 | 9.0 | 0.00 | 0.68 | 0.32 | 89 | 1015.0 |
| 20260905173047 | 56 | 307 | 5.0 | 16.0 | 0.01 | 0.68 | 0.32 | 88 | 1014.9 |
| 20260905171559 | 56 | 321 | 7.0 | 13.0 | 0.07 | 0.68 | 0.32 | 88 | 1015.0 |
| 20260905170056 | 56 | 310 | 5.0 | 12.0 | 0.07 | 0.68 | 0.32 | 91 | 1014.7 |
| 20260905164550 | 56 | 264 | 6.0 | 18.0 | 0.07 | 0.70 | 0.32 | 89 | 1014.8 |
| 20260905163048 | 57 | 264 | 16.0 | 25.0 | 0.05 | 0.69 | 0.30 | 85 | 1014.9 |
| 20260905161550 | 58 | 312 | 4.0 | 6.0 | 0.00 | 0.63 | 0.25 | 85 | 1014.3 |
| 20260905160053 | 58 | 271 | 2.0 | 6.0 | 0.03 | 0.63 | 0.25 | 85 | 1014.0 |
| 20260905154555 | 57 | 295 | 3.0 | 9.0 | 0.04 | 0.63 | 0.25 | 85 | 1014.0 |
| 20260905153047 | 57 | 287 | 3.0 | 9.0 | 0.04 | 0.63 | 0.25 | 85 | 1014.0 |
| 20260905151545 | 59 | 267 | 6.0 | 15.0 | 0.03 | 0.62 | 0.24 | 86 | 1014.3 |
| 20260905150048 | 61 | 305 | 5.0 | 7.0 | 0.00 | 0.59 | 0.21 | 80 | 1014.1 |
| 20260905144553 | 62 | 319 | 4.0 | 9.0 | 0.00 | 0.59 | 0.20 | 78 | 1014.0 |
| 20260905143045 | 61 | 12 | 5.0 | 7.0 | 0.00 | 0.59 | 0.20 | 82 | 1013.9 |
| 20260905141551 | 59 | 326 | 2.0 | 7.0 | 0.18 | 0.59 | 0.20 | 84 | 1014.0 |
| 20260905140052 | 59 | 293 | 6.0 | 15.0 | 0.18 | 0.59 | 0.20 | 83 | 1013.9 |
| 20260905134552 | 60 | 329 | 9.0 | 22.0 | 0.17 | 0.58 | 0.19 | 84 | 1014.1 |
| 20260905133051 | 61 | 284 | 4.0 | 11.0 | 0.17 | 0.58 | 0.19 | 83 | 1013.9 |
| 20260905131548 | 63 | 309 | 4.0 | 10.0 | 0.00 | 0.40 | 0.02 | 76 | 1013.7 |
| 20260905130046 | 64 | 226 | 4.0 | 10.0 | 0.00 | 0.40 | 0.02 | 76 | 1013.7 |
| 20260905124551 | 62 | 261 | 2.0 | 8.0 | 0.00 | 0.40 | 0.02 | 82 | 1013.7 |
| 20260905123051 | 61 | 235 | 3.0 | 8.0 | 0.00 | 0.40 | 0.02 | 83 | 1013.8 |
| 20260905121547 | 59 | 245 | 2.0 | 7.0 | 0.02 | 0.40 | 0.02 | 86 | 1013.9 |
| 20260905120051 | 58 | 283 | 4.0 | 7.0 | 0.02 | 0.40 | 0.02 | 87 | 1014.0 |
| 20260905114606 | 57 | 302 | 3.0 | 13.0 | 0.02 | 0.40 | 0.02 | 85 | 1014.0 |
| 20260905113051 | 59 | 302 | 10.0 | 21.0 | 0.01 | 0.40 | 0.01 | 81 | 1014.4 |
| 20260905111543 | 63 | 296 | 10.0 | 20.0 | 0.00 | 0.38 | 0.00 | 67 | 1013.9 |
| 20260905110051 | 63 | 316 | 7.0 | 17.0 | 0.00 | 0.38 | 0.00 | 71 | 1013.8 |
| 20260905104551 | 65 | 290 | 7.0 | 15.0 | 0.00 | 0.38 | 0.00 | 64 | 1013.6 |
| 20260905103051 | 66 | 202 | 8.0 | 16.0 | 0.00 | 0.38 | 0.00 | 64 | 1013.3 |
| 20260905101547 | 65 | 316 | 9.0 | 17.0 | 0.00 | 0.38 | 0.00 | 63 | 1013.5 |
| 20260905100050 | 65 | 51 | 9.0 | 17.0 | 0.00 | 0.38 | 0.00 | 64 | 1013.5 |
| 20260905094601 | 66 | 287 | 9.0 | 17.0 | 0.00 | 0.38 | 0.00 | 62 | 1013.5 |
| 20260905093045 | 64 | 321 | 8.0 | 20.0 | 0.00 | 0.38 | 0.00 | 66 | 1013.4 |
| 20260905091600 | 64 | 309 | 10.0 | 20.0 | 0.00 | 0.38 | 0.00 | 68 | 1013.4 |
| 20260905090049 | 64 | 271 | 8.0 | 16.0 | 0.00 | 0.38 | 0.00 | 67 | 1013.3 |
| 20260905084547 | 64 | 311 | 9.0 | 19.0 | 0.00 | 0.38 | 0.00 | 68 | 1013.2 |
| 20260905083051 | 63 | 176 | 9.0 | 18.0 | 0.00 | 0.38 | 0.00 | 72 | 1013.1 |
| 20260905081559 | 63 | 2 | 12.0 | 20.0 | 0.00 | 0.38 | 0.00 | 70 | 1012.8 |
| 20260905080056 | 63 | 252 | 13.0 | 21.0 | 0.00 | 0.38 | 0.00 | 70 | 1012.6 |
| 20260905074548 | 62 | 354 | 10.0 | 18.0 | 0.00 | 0.38 | 0.00 | 75 | 1012.6 |
| 20260905073047 | 62 | 331 | 9.0 | 19.0 | 0.00 | 0.38 | 0.00 | 76 | 1012.6 |
| 20260905071558 | 61 | 267 | 9.0 | 17.0 | 0.00 | 0.38 | 0.00 | 78 | 1012.4 |
| 20260905070049 | 60 | 238 | 5.0 | 15.0 | 0.00 | 0.38 | 0.00 | 77 | 1012.2 |
| 20260905064553 | 61 | 248 | 5.0 | 15.0 | 0.00 | 0.38 | 0.00 | 77 | 1012.1 |
| 20260905063050 | 60 | 253 | 8.0 | 17.0 | 0.00 | 0.38 | 0.00 | 77 | 1011.9 |
| 20260905061607 | 61 | 316 | 8.0 | 20.0 | 0.00 | 0.38 | 0.00 | 79 | 1011.8 |
| 20260905060050 | 60 | 275 | 7.0 | 19.0 | 0.00 | 0.38 | 0.00 | 81 | 1011.8 |
| 20260905054549 | 60 | 261 | 8.0 | 17.0 | 0.00 | 0.38 | 0.00 | 82 | 1011.6 |
| 20260905053054 | 60 | 268 | 9.0 | 17.0 | 0.00 | 0.38 | 0.00 | 83 | 1011.3 |
| 20260905051550 | 59 | 303 | 6.0 | 14.0 | 0.00 | 0.38 | 0.00 | 83 | 1011.2 |
| 20260905050048 | 59 | 315 | 7.0 | 12.0 | 0.00 | 0.38 | 0.00 | 84 | 1011.0 |
| 20260905044544 | 58 | 327 | 5.0 | 10.0 | 0.00 | 0.38 | 0.00 | 85 | 1010.9 |
| 20260905043112 | 58 | 307 | 6.0 | 15.0 | 0.00 | 0.38 | 0.00 | 85 | 1010.7 |
| 20260905041548 | 58 | 311 | 4.0 | 11.0 | 0.00 | 0.38 | 0.00 | 86 | 1010.5 |
| 20260905040113 | 58 | 323 | 5.0 | 12.0 | 0.00 | 0.38 | 0.00 | 85 | 1010.3 |
| 20260905034558 | 59 | 294 | 4.0 | 16.0 | 0.00 | 0.38 | 0.00 | 85 | 1010.2 |
| 20260905033053 | 59 | 289 | 5.0 | 9.0 | 0.00 | 0.38 | 0.00 | 85 | 1009.9 |
| 20260905031548 | 59 | 311 | 4.0 | 10.0 | 0.00 | 0.38 | 0.00 | 83 | 1009.9 |
| 20260905030057 | 59 | 245 | 6.0 | 10.0 | 0.00 | 0.38 | 0.00 | 82 | 1009.6 |
| 20260905024550 | 60 | 316 | 6.0 | 12.0 | 0.00 | 0.38 | 0.00 | 81 | 1009.5 |
| 20260905023053 | 60 | 304 | 5.0 | 12.0 | 0.00 | 0.38 | 0.00 | 80 | 1009.4 |
| 20260905021551 | 60 | 304 | 6.0 | 14.0 | 0.00 | 0.38 | 0.00 | 82 | 1009.4 |
| 20260905020054 | 60 | 331 | 5.0 | 12.0 | 0.00 | 0.38 | 0.00 | 81 | 1009.1 |
| 20260905014550 | 60 | 350 | 7.0 | 11.0 | 0.00 | 0.38 | 0.00 | 80 | 1009.2 |
| 20260905013057 | 61 | 310 | 9.0 | 16.0 | 0.00 | 0.38 | 0.00 | 81 | 1009.0 |
| 20260905011548 | 61 | 290 | 6.0 | 16.0 | 0.00 | 0.38 | 0.00 | 83 | 1008.7 |
| 20260905010050 | 61 | 290 | 7.0 | 16.0 | 0.00 | 0.38 | 0.00 | 84 | 1008.8 |
| 20260905004557 | 61 | 301 | 10.0 | 18.0 | 0.00 | 0.38 | 0.00 | 84 | 1008.5 |
| 20260905003047 | 61 | 317 | 9.0 | 20.0 | 0.00 | 0.38 | 0.00 | 85 | 1007.9 |
| 20260905001546 | 61 | 302 | 9.0 | 16.0 | 0.00 | 0.38 | 0.00 | 86 | 1008.1 |
| 20260905000051 | 61 | 308 | 7.0 | 15.0 | 0.00 | 0.38 | 0.00 | 87 | 1007.9 |
| 20260904234555 | 61 | 300 | 8.0 | 15.0 | 0.00 | 0.38 | 0.00 | 87 | 1007.8 |
| 20260904233047 | 61 | 302 | 7.0 | 16.0 | 0.00 | 0.38 | 0.00 | 87 | 1007.6 |
| 20260904231547 | 61 | 298 | 6.0 | 13.0 | 0.00 | 0.38 | 0.00 | 87 | 1007.4 |
| 20260904230051 | 61 | 306 | 8.0 | 15.0 | 0.00 | 0.38 | 0.00 | 87 | 1007.2 |
| 20260904224555 | 61 | 319 | 8.0 | 15.0 | 0.00 | 0.38 | 0.00 | 87 | 1007.2 |
| 20260904223047 | 61 | 274 | 6.0 | 13.0 | 0.00 | 0.38 | 0.00 | 87 | 1007.1 |
| 20260904221548 | 62 | 269 | 6.0 | 20.0 | 0.00 | 0.38 | 0.00 | 86 | 1007.1 |
| 20260904220110 | 62 | 278 | 9.0 | 16.0 | 0.00 | 0.38 | 0.00 | 85 | 1006.9 |
| 20260904214548 | 62 | 263 | 7.0 | 16.0 | 0.00 | 0.38 | 0.38 | 84 | 1006.5 |
| 20260904213050 | 62 | 341 | 8.0 | 16.0 | 0.00 | 0.38 | 0.38 | 85 | 1006.4 |
| 20260904211552 | 62 | 291 | 8.0 | 16.0 | 0.01 | 0.38 | 0.38 | 85 | 1006.2 |
| 20260904210050 | 63 | 269 | 9.0 | 16.0 | 0.01 | 0.38 | 0.38 | 85 | 1005.3 |
| 20260904204550 | 63 | 271 | 6.0 | 13.0 | 0.02 | 0.38 | 0.38 | 88 | 1005.4 |